Temp_Advection
nan nan nan nan nan nan nan nan nan nan nan nan nan nan nan nan nan nan nan nan nan nan nan nan nan nan nan nan nan nan nan nan nan nan nan nan nan nan nan nan nan nan nan
nan -0 0 0 0 0 0 0 1 0 1 0 0 0 0 0 1 1 1 0 0 0 1 1 0 0 0 0 0 0 0 0 -0 -0 -0 -0 0 0 -0 -0 0 0 nan
nan 0 -0 -0 0 0 0 0 0 1 0 1 1 1 0 0 1 1 1 1 1 1 1 1 0 1 0 0 0 0 0 0 0 -0 -0 -0 -0 -0 0 0 0 0 nan
nan 0 -0 -1 -0 0 0 0 0 0 0 1 1 1 0 0 0 1 2 2 1 1 1 0 0 0 -0 0 0 0 0 0 0 0 -0 0 0 -0 -0 0 0 0 nan
nan 0 0 0 0 -0 -0 1 0 0 1 1 1 1 -0 -0 1 2 2 1 1 1 1 0 0 0 0 0 0 0 0 0 0 0 0 0 0 0 0 -1 -1 -0 nan
nan -0 -0 -0 0 0 0 0 -0 0 1 1 2 1 -0 1 2 2 1 1 1 1 0 0 0 0 0 0 0 0 0 0 0 0 0 0 0 0 1 -0 -1 -1 nan
nan -0 -0 -0 -0 -0 0 0 0 0 1 1 2 1 1 1 1 1 2 1 0 0 0 0 0 0 0 0 0 0 0 0 0 0 0 0 0 0 1 0 -0 -1 nan
nan 0 -0 -0 -1 -1 -0 0 0 1 2 2 1 2 2 0 1 2 2 0 0 1 0 1 0 0 1 0 0 0 0 0 0 0 0 0 0 0 1 1 0 -1 nan
nan -0 -0 -0 -1 -1 -0 0 1 1 1 1 1 2 1 1 1 1 1 1 1 1 1 0 0 0 1 0 0 0 0 0 0 0 0 0 0 0 1 1 1 1 nan
nan 0 -0 -1 -1 -1 -1 0 1 1 1 1 2 1 0 1 1 1 1 2 1 1 1 0 1 1 1 0 0 0 0 0 0 0 0 0 0 0 0 0 1 1 nan
nan 0 0 -1 -1 -1 -0 0 1 1 1 1 1 0 1 1 0 1 2 1 1 1 1 1 0 0 0 0 0 0 0 0 0 0 0 0 0 0 0 0 0 1 nan
nan 0 0 -0 -1 -1 -0 1 1 1 1 1 1 1 1 1 1 2 2 2 1 1 1 0 0 0 0 0 0 0 0 0 0 0 0 0 0 0 0 0 1 1 nan
nan 0 0 -0 -0 -0 -0 1 1 1 1 1 1 1 1 2 2 1 2 1 1 1 1 0 0 0 0 0 0 0 0 0 0 0 0 0 0 -0 0 0 0 0 nan
nan 0 0 -0 -0 -0 0 1 1 1 1 2 2 2 2 2 1 1 1 1 1 1 0 0 0 0 0 0 0 0 0 0 0 0 0 0 0 0 0 0 0 0 nan
nan 0 0 0 0 0 1 1 1 1 1 2 2 2 2 1 1 1 0 1 1 0 0 0 0 0 0 0 0 0 0 0 0 0 1 1 1 1 0 0 0 0 nan
nan 0 0 0 0 1 1 1 1 2 2 2 2 2 1 1 1 1 1 1 0 0 0 0 0 0 0 0 0 0 0 0 0 0 0 1 0 1 0 0 -0 -0 nan
nan -0 0 0 0 1 1 1 1 2 2 2 1 0 1 1 1 1 0 -0 0 0 0 0 0 0 0 0 0 0 0 -0 -0 0 0 0 -0 0 0 0 0 0 nan
nan 0 1 1 1 1 1 1 1 1 1 1 1 0 0 -0 -0 1 1 -0 0 0 0 0 0 -0 -0 0 0 -0 -0 -0 0 0 0 0 0 0 0 0 0 0 nan
nan 1 1 1 1 2 2 2 1 1 0 0 0 1 1 1 0 -0 0 0 0 0 0 0 -0 0 -0 -0 0 0 -0 -0 0 0 0 0 0 -0 -0 0 0 0 nan
nan 1 1 1 1 1 1 0 0 -0 -0 -0 -0 -0 0 0 0 0 0 0 0 0 0 0 0 0 0 -0 -0 -0 -0 -0 -0 -0 -0 0 -0 -0 -0 0 0 0 nan
nan 0 1 0 0 0 -0 -0 -0 1 0 -0 -0 0 -0 -0 0 -0 0 0 0 0 0 0 -0 -0 -0 -0 -1 -1 -1 -1 -1 -1 -1 -0 -0 -0 -0 -0 0 0 nan
nan 0 -0 -0 -0 0 -0 -1 -1 0 1 0 -1 -0 1 0 0 0 0 0 0 0 -0 -0 0 0 0 -0 -0 0 -0 -0 -0 -0 -0 -0 -0 -0 -0 -0 -0 -1 nan
nan -0 -0 0 0 0 1 0 -0 -1 0 1 1 -0 -0 0 0 0 0 0 -0 -0 -0 0 0 0 0 0 0 0 0 1 1 0 -0 -0 0 -0 -0 -0 0 -0 nan
nan -1 -1 -1 -0 0 0 0 0 0 -0 -0 0 1 0 -0 -0 0 -0 -0 -0 -0 -0 -0 0 0 0 0 0 -0 0 -0 -0 0 -0 -0 0 0 -0 -0 0 0 nan
nan -0 -0 -1 -0 0 0 0 -0 -0 0 -0 -0 -0 0 0 -0 -0 -0 -0 -0 -0 -0 0 -0 -0 -0 0 0 -0 -1 -0 -0 -0 -0 -0 -0 -0 -0 -0 -0 0 nan
nan nan nan nan nan nan nan nan nan nan nan nan nan nan nan nan nan nan nan nan nan nan nan nan nan nan nan nan nan nan nan nan nan nan nan nan nan nan nan nan nan nan nan
Wind_Speed
29 28 28 30 32 36 36 36 36 36 36 34 35 34 33 31 29 26 27 33 32 27 27 25 21 18 15 13 10 7 5 4 8 9 10 7 9 10 10 7 9 10 18
31 35 33 31 35 35 36 36 34 34 35 38 36 36 35 34 31 30 33 35 34 32 28 26 22 20 16 14 11 7 6 5 7 8 8 4 7 9 10 15 14 16 15
35 36 36 35 34 38 39 35 35 34 33 34 35 35 34 36 36 35 39 42 39 33 30 28 24 21 17 15 11 7 6 6 6 8 5 3 3 12 10 8 14 14 18
34 36 37 35 33 37 37 41 35 38 37 36 37 41 42 43 42 42 44 43 36 35 32 30 26 21 18 15 11 8 6 7 8 8 7 7 8 6 9 7 12 18 17
20 23 25 28 35 30 30 38 40 35 38 39 40 43 44 44 41 43 43 39 34 33 33 29 26 23 20 16 12 10 6 7 9 9 10 10 10 9 10 22 20 22 23
1 7 11 14 18 22 34 25 36 41 36 38 42 45 45 43 40 40 41 39 37 35 32 30 26 24 20 17 13 10 7 7 8 10 11 11 10 9 13 20 28 29 31
5 11 13 16 20 25 28 30 30 38 41 35 42 42 43 41 36 36 37 38 39 36 34 31 28 24 21 16 13 9 8 8 10 10 11 12 12 14 16 19 25 30 34
5 7 13 18 24 23 26 29 32 31 38 37 39 40 39 34 33 29 31 38 37 37 34 30 26 23 19 17 12 9 9 9 11 12 12 13 13 15 17 20 22 30 32
3 6 14 20 22 23 24 28 30 32 34 37 38 37 33 33 30 28 31 36 37 36 32 28 25 22 19 15 11 9 9 10 12 13 14 15 16 17 19 20 21 22 25
1 6 14 23 20 20 22 25 29 34 34 37 36 35 34 34 27 27 34 37 36 34 31 27 24 21 17 12 9 8 9 10 12 14 15 17 18 19 20 21 22 22 26
6 9 14 22 17 16 17 22 28 30 32 32 36 36 37 32 28 30 33 35 36 34 30 26 22 18 14 10 8 8 10 11 13 15 17 18 20 21 22 23 24 25 24
13 11 11 19 16 15 15 23 26 28 34 37 38 38 34 29 31 32 33 36 34 30 27 24 20 15 10 8 8 9 11 12 14 16 18 19 21 22 23 25 25 24 26
15 8 8 14 12 11 12 19 24 32 35 37 38 33 30 32 31 31 34 33 31 27 24 21 16 12 10 8 8 10 11 13 15 17 19 21 22 24 25 25 25 27 29
17 7 5 9 5 10 11 19 27 31 32 35 32 30 33 34 33 32 32 30 26 26 21 18 12 9 7 7 9 10 12 14 16 18 20 22 23 24 25 27 27 26 29
7 6 3 4 8 9 16 23 28 30 31 28 27 31 33 32 34 33 31 27 24 21 17 11 10 6 7 8 9 11 14 16 17 18 20 21 22 23 21 21 23 25 28
10 7 4 7 9 12 22 27 28 27 25 25 30 35 35 35 34 32 30 24 22 19 14 10 7 5 7 7 11 13 15 17 18 19 20 22 22 23 20 20 20 22 25
11 5 7 11 15 18 22 23 23 23 26 33 36 37 36 33 32 27 24 22 17 12 9 6 4 5 5 9 13 15 16 17 18 19 20 22 23 25 24 24 22 24 27
18 11 13 19 19 17 18 21 27 31 35 38 39 36 33 30 25 25 21 16 12 10 7 4 3 7 10 11 14 16 17 18 18 18 19 21 24 22 22 23 25 30 34
10 17 21 21 20 21 23 28 34 36 35 34 31 29 27 25 20 16 18 15 11 7 3 3 6 8 11 14 15 16 18 19 19 18 20 21 21 20 20 23 31 35 37
21 21 19 18 20 24 26 30 31 30 28 27 28 25 21 17 22 19 13 11 7 1 1 4 7 10 11 14 17 18 21 22 21 20 21 19 18 18 21 26 31 36 39
16 16 21 24 24 25 27 32 33 32 28 27 22 19 18 19 15 14 11 5 3 2 2 5 9 11 13 14 18 21 22 21 21 25 25 23 21 22 25 27 30 33 28
17 17 20 23 23 26 28 30 29 27 25 21 22 23 19 14 13 9 7 5 2 2 5 7 9 10 13 15 18 16 15 16 21 23 24 24 24 27 26 25 24 23 24
23 27 28 29 26 26 27 26 25 26 26 25 22 20 18 15 10 7 5 3 1 4 7 8 10 12 14 16 16 18 21 24 22 22 22 24 26 27 22 23 21 21 23
23 26 28 29 27 22 24 26 27 25 22 22 20 17 13 10 7 5 2 3 5 7 8 10 13 15 18 19 20 22 23 24 24 23 27 31 27 19 21 22 21 22 22
21 20 24 26 26 24 26 26 24 22 20 17 15 13 9 7 5 3 3 5 7 8 10 13 15 19 20 20 20 21 23 23 22 24 28 25 22 24 23 22 22 22 24
19 20 23 26 27 26 26 23 19 15 14 14 12 9 7 5 3 3 4 7 9 11 13 16 17 17 18 19 20 22 21 21 21 22 22 22 22 23 23 24 25 25 26
Wind_Direction
250 249 245 239 233 233 232 225 222 223 221 210 209 209 207 212 214 216 215 216 217 213 210 212 217 222 225 228 224 235 268 314 328 336 341 333 331 324 324 305 285 296 297
246 246 244 239 236 237 234 232 223 222 224 217 212 211 208 211 213 213 209 212 215 218 212 213 214 223 224 222 222 231 267 310 329 344 346 347 313 302 312 312 297 299 292
246 247 248 245 240 236 234 233 233 224 223 219 212 208 206 212 205 212 216 218 223 214 212 210 214 219 218 218 216 228 270 302 325 339 348 336 280 302 289 297 290 296 298
249 252 253 251 245 241 238 234 234 229 224 220 208 209 203 209 212 217 215 222 221 211 210 211 215 215 216 217 218 228 256 297 316 324 331 317 294 302 299 277 266 287 291
242 246 249 249 253 248 242 236 232 231 223 219 211 208 208 214 218 218 217 217 218 210 209 209 213 212 212 212 220 233 254 283 307 317 320 317 308 302 287 296 303 296 290
340 304 301 297 260 256 252 243 231 226 222 214 208 212 215 217 218 217 218 219 217 206 205 204 209 211 217 211 217 233 257 284 301 310 313 307 301 279 266 277 292 299 306
293 299 284 277 272 264 249 248 238 225 217 211 206 214 219 221 223 224 219 211 208 200 202 205 207 210 207 206 219 236 264 289 301 310 307 304 297 290 287 287 294 299 305
312 285 309 301 294 264 248 240 237 224 212 207 208 217 218 221 222 219 213 205 209 202 201 201 203 203 204 212 221 242 270 290 302 306 306 302 300 296 295 295 296 302 304
220 326 312 300 301 278 244 233 230 213 207 205 211 213 211 219 215 211 204 202 205 199 200 200 199 202 206 212 225 248 274 295 305 307 307 306 304 301 298 295 295 297 297
155 307 310 310 307 290 251 229 216 212 205 204 206 200 206 214 212 202 200 203 199 194 197 198 198 200 203 213 236 263 287 298 302 304 305 304 302 300 297 295 296 293 288
297 308 309 307 309 289 252 224 211 202 202 194 193 195 202 205 202 199 199 196 193 193 193 194 195 198 203 218 246 273 291 297 299 302 304 304 301 300 300 300 299 297 296
250 263 301 308 308 284 253 212 199 199 190 189 192 194 200 199 194 192 191 189 185 186 190 188 192 197 208 233 262 282 293 298 303 305 302 301 301 301 300 300 301 297 294
243 233 269 303 306 277 232 193 192 184 186 191 194 194 191 189 185 187 182 180 184 185 183 187 191 200 222 245 272 286 296 302 305 304 304 305 303 303 303 301 298 298 300
282 227 276 298 270 268 214 168 163 174 182 193 193 188 183 181 179 178 177 182 180 179 181 186 187 208 237 266 283 292 300 303 304 306 304 303 302 302 301 301 305 311 312
266 254 255 262 232 222 174 163 163 174 182 183 180 174 170 172 174 173 174 172 171 171 180 182 203 215 260 285 293 301 306 305 306 305 302 299 296 293 298 303 304 305 306
276 206 193 210 210 195 170 168 169 178 185 179 167 165 167 170 171 169 171 170 170 170 180 194 213 245 272 292 300 305 308 308 308 308 303 302 303 307 301 299 299 299 303
298 336 239 193 185 170 168 165 169 173 169 163 161 162 164 165 168 162 159 162 162 178 177 188 238 261 294 308 301 307 309 311 311 311 309 308 308 308 309 307 304 301 305
259 260 185 183 187 183 181 177 168 164 162 160 161 161 160 155 149 156 163 178 166 171 180 209 267 299 300 300 304 307 311 313 316 313 310 304 304 309 308 308 304 304 304
237 172 177 184 179 180 174 167 159 162 160 155 147 145 150 150 148 165 161 160 167 167 170 284 285 298 303 303 309 309 313 317 318 310 301 300 304 306 312 307 307 306 305
143 156 166 164 162 162 169 160 154 155 151 145 141 144 146 150 147 160 157 157 154 169 280 280 296 304 305 307 313 317 320 320 317 316 318 321 315 313 309 309 308 306 304
112 129 139 145 149 155 156 149 148 148 142 141 136 130 136 162 154 157 150 145 157 189 282 300 312 315 315 315 319 321 323 326 330 326 325 323 320 315 311 307 301 301 311
120 131 134 137 138 143 146 144 144 142 138 144 149 149 154 158 157 149 141 139 163 295 317 323 318 315 311 315 317 317 318 321 312 316 315 318 317 309 308 306 307 313 308
112 116 122 128 138 149 149 147 141 146 144 147 151 151 150 150 141 135 137 146 337 334 324 317 315 313 311 314 312 306 307 310 315 312 315 312 314 314 314 315 316 313 313
129 134 139 137 139 144 143 137 140 144 142 143 143 143 145 137 130 128 107 4 347 332 322 316 315 315 317 320 316 313 314 321 323 329 320 312 315 318 316 319 322 320 321
136 144 140 137 136 140 140 140 144 147 145 141 139 137 132 129 120 86 20 342 339 329 326 322 322 322 323 322 320 320 323 326 326 312 308 320 327 325 329 330 331 332 332
149 142 139 135 134 137 135 136 136 141 137 133 131 130 125 107 71 6 343 338 336 331 327 326 328 329 324 325 326 325 327 324 316 315 319 325 328 330 331 333 335 337 336
Height
1444 1446 1447 1449 1451 1455 1458 1460 1462 1466 1470 1474 1476 1478 1482 1486 1489 1493 1496 1497 1499 1503 1506 1508 1511 1513 1515 1517 1518 1519 1520 1518 1519 1518 1517 1515 1515 1514 1513 1513 1512 1511 1510
1437 1438 1440 1441 1443 1445 1449 1453 1456 1457 1462 1466 1471 1474 1475 1479 1484 1488 1489 1492 1495 1498 1502 1505 1507 1509 1511 1513 1514 1516 1517 1516 1516 1516 1514 1514 1513 1512 1512 1511 1510 1510 1509
1429 1432 1433 1434 1436 1438 1442 1445 1450 1453 1454 1459 1466 1466 1469 1472 1475 1481 1485 1486 1488 1494 1498 1501 1503 1506 1508 1510 1511 1512 1513 1513 1514 1513 1514 1512 1512 1510 1510 1509 1509 1508 1507
1423 1425 1427 1428 1430 1432 1435 1439 1443 1446 1450 1452 1456 1458 1459 1462 1467 1472 1476 1479 1484 1489 1494 1496 1499 1502 1505 1508 1510 1510 1510 1510 1510 1510 1511 1510 1510 1510 1507 1506 1506 1506 1504
1418 1419 1420 1421 1425 1427 1429 1431 1436 1440 1443 1445 1447 1451 1453 1456 1461 1465 1470 1475 1481 1485 1489 1493 1495 1498 1501 1504 1504 1509 1507 1507 1507 1507 1507 1506 1506 1506 1505 1499 1499 1500 1499
1412 1414 1417 1419 1419 1420 1421 1424 1427 1431 1436 1438 1441 1442 1447 1449 1455 1459 1464 1470 1475 1480 1484 1488 1491 1493 1497 1500 1503 1505 1504 1504 1504 1504 1503 1503 1503 1503 1502 1498 1495 1492 1489
1409 1412 1412 1413 1414 1415 1416 1417 1420 1423 1428 1432 1435 1437 1442 1444 1449 1453 1457 1463 1469 1475 1479 1482 1487 1490 1493 1496 1499 1500 1501 1501 1501 1500 1500 1499 1498 1497 1497 1495 1491 1487 1482
1407 1408 1410 1411 1409 1407 1408 1411 1414 1418 1422 1425 1430 1435 1435 1441 1443 1448 1452 1459 1465 1470 1474 1479 1484 1488 1490 1493 1494 1496 1497 1497 1497 1497 1496 1495 1494 1493 1492 1491 1488 1482 1478
1403 1407 1409 1408 1405 1402 1401 1403 1407 1412 1417 1419 1426 1429 1432 1436 1439 1443 1450 1456 1462 1467 1472 1476 1481 1485 1487 1489 1490 1492 1493 1492 1492 1492 1492 1491 1490 1489 1488 1486 1484 1482 1475
1400 1403 1406 1406 1400 1397 1397 1397 1401 1406 1411 1416 1421 1423 1429 1432 1437 1441 1447 1453 1458 1464 1469 1474 1479 1482 1484 1487 1488 1488 1489 1488 1488 1487 1488 1487 1486 1484 1483 1481 1479 1477 1474
1401 1401 1402 1401 1397 1394 1394 1393 1397 1403 1408 1412 1413 1419 1425 1428 1434 1440 1445 1450 1455 1461 1466 1471 1476 1480 1482 1484 1485 1485 1485 1485 1485 1484 1483 1482 1481 1479 1477 1475 1473 1470 1469
1398 1397 1397 1397 1395 1393 1391 1390 1393 1400 1403 1405 1409 1417 1421 1426 1432 1437 1442 1448 1453 1460 1465 1469 1473 1477 1480 1482 1482 1482 1482 1481 1480 1479 1478 1477 1475 1474 1472 1469 1467 1465 1463
1393 1392 1393 1395 1394 1392 1390 1390 1392 1395 1397 1404 1409 1414 1419 1425 1431 1437 1442 1448 1453 1458 1462 1467 1471 1474 1476 1478 1478 1479 1478 1478 1476 1475 1474 1472 1470 1468 1466 1463 1461 1459 1456
1390 1388 1388 1392 1391 1392 1390 1388 1388 1393 1398 1404 1408 1412 1416 1423 1429 1437 1443 1448 1452 1457 1462 1465 1468 1472 1475 1476 1475 1475 1475 1474 1473 1471 1469 1468 1465 1463 1460 1458 1455 1451 1448
1384 1384 1386 1390 1391 1391 1389 1388 1390 1395 1399 1404 1409 1412 1416 1424 1429 1436 1442 1447 1453 1457 1462 1464 1467 1468 1471 1473 1474 1472 1471 1470 1468 1467 1465 1463 1461 1459 1456 1453 1449 1447 1443
1384 1382 1385 1389 1390 1389 1388 1389 1390 1396 1401 1406 1409 1412 1417 1423 1430 1436 1440 1446 1451 1456 1460 1464 1466 1465 1468 1469 1471 1469 1467 1466 1464 1461 1460 1458 1455 1453 1450 1448 1446 1444 1440
1382 1382 1383 1387 1387 1389 1391 1392 1395 1399 1404 1408 1411 1414 1419 1426 1433 1437 1443 1449 1453 1455 1459 1463 1464 1464 1465 1465 1466 1465 1463 1461 1459 1457 1454 1452 1450 1447 1444 1442 1439 1437 1434
1378 1380 1382 1384 1386 1390 1393 1395 1398 1402 1406 1409 1412 1415 1421 1429 1436 1441 1445 1447 1451 1456 1459 1459 1462 1462 1461 1462 1462 1461 1459 1456 1454 1452 1451 1448 1445 1442 1439 1436 1432 1429 1426
1374 1377 1379 1383 1386 1389 1392 1395 1399 1403 1409 1413 1417 1422 1427 1429 1430 1441 1449 1449 1452 1455 1456 1459 1462 1460 1459 1459 1458 1456 1454 1452 1450 1448 1446 1443 1440 1437 1435 1431 1426 1422 1418
1374 1376 1381 1385 1387 1391 1394 1398 1405 1411 1416 1418 1422 1426 1432 1437 1438 1446 1448 1451 1454 1455 1457 1459 1459 1458 1457 1456 1454 1452 1449 1446 1445 1443 1439 1437 1435 1432 1430 1426 1420 1413 1410
1383 1385 1387 1389 1392 1395 1399 1404 1409 1413 1416 1420 1425 1429 1434 1445 1445 1448 1450 1451 1453 1454 1456 1457 1456 1455 1454 1453 1450 1447 1445 1442 1439 1436 1433 1431 1429 1427 1424 1420 1415 1410 1406
1388 1390 1392 1395 1398 1402 1406 1407 1411 1417 1421 1426 1430 1434 1439 1445 1449 1449 1448 1451 1453 1454 1454 1454 1453 1452 1451 1450 1448 1445 1443 1440 1436 1432 1429 1426 1423 1420 1416 1413 1408 1405 1401
1396 1393 1394 1398 1398 1404 1409 1409 1413 1422 1426 1431 1436 1439 1444 1448 1448 1448 1450 1452 1452 1452 1452 1452 1451 1450 1448 1446 1444 1441 1439 1435 1432 1428 1424 1421 1417 1413 1409 1405 1403 1398 1394
1403 1405 1405 1406 1409 1413 1417 1419 1423 1428 1431 1434 1439 1443 1445 1446 1447 1449 1450 1451 1451 1451 1450 1449 1448 1446 1444 1442 1439 1437 1433 1430 1426 1422 1418 1415 1411 1407 1404 1399 1396 1393 1389
1407 1408 1409 1411 1414 1418 1422 1426 1429 1432 1435 1438 1441 1443 1445 1447 1448 1450 1450 1450 1450 1449 1448 1446 1445 1442 1440 1438 1435 1432 1428 1425 1423 1420 1413 1409 1405 1401 1398 1395 1391 1388 1384
1409 1411 1413 1415 1418 1422 1425 1429 1433 1436 1438 1440 1442 1445 1447 1448 1449 1449 1449 1449 1448 1447 1445 1443 1442 1440 1437 1434 1431 1428 1425 1423 1419 1413 1409 1406 1402 1399 1395 1391 1387 1384 1380